Location: A�t Mechkouk
(31.2084°N, 8.8528°W)
Time: 06:58:32
(UTC+00:00)

Daily predictions for brighter satellites

Satellite Brightness Start Highest point End
(mag) Time Altitude Azimuth Time Altitude Azimuth Time Altitude Azimuth
BREEZE-M DEB (TANK) 3.9 18:11:32 10° NNW 18:14:19 37° NE 18:22:10 10° ESE
SL-16 R/B 3.0 18:11:52 10° NNW 18:17:26 59° WSW 18:23:00 10° S
Cosmos 1300 3.4 18:19:07 10° NNE 18:22:33 31° E 18:25:58 10° SE
ERBS 3.2 18:21:07 10° NW 18:24:17 53° SW 18:27:28 10° SSE
ISS -2.5 18:22:26 10° S 18:25:18 27° SE 18:28:12 10° ENE
Cosmos 1689 Rocket 3.7 18:23:42 10° NE 18:25:37 16° E 18:27:31 10° SE
DELTA 2 R/B (1) 4.2 18:23:06 10° WNW 18:28:21 41° NNE 18:33:35 10° E
Cosmos 1943 3.7 18:26:03 10° N 18:31:13 36° ENE 18:36:20 10° SE
Hubble Space Telescope 2.6 18:32:17 10° SSW 18:35:29 22° SSE 18:38:41 10° ESE
Cosmos 1726 Rocket 4.3 18:32:03 10° NNE 18:35:55 31° E 18:39:48 10° SE
Okean-O 3.9 18:33:14 10° ESE 18:36:27 20° ENE 18:39:39 10° NNE
USA 267 3.5 18:30:51 10° NE 18:37:16 57° SE 18:43:39 10° SSW
Aureole 2 Rocket 3.5 18:37:42 10° SSE 18:39:49 19° E 18:41:09 14° ENE
Cosmos 2279 Rocket 4.1 18:34:15 10° N 18:40:22 53° E 18:46:25 10° SSE
Okean O Rocket 2.5 18:40:15 10° S 18:44:36 53° W 18:48:57 10° NNW
X-37B 0.7 18:42:33 10° SW 18:45:41 60° SE 18:47:55 17° ENE
CZ-2C R/B 4.0 18:43:14 10° NE 18:47:13 20° E 18:51:13 10° SE
COSMO-SKYMED 1 2.9 18:44:34 10° N 18:48:54 70° WNW 18:53:11 10° SSW
Cosmos 1634 Rocket 4.3 18:43:54 10° N 18:50:08 75° W 18:56:23 10° S
ERS-2 2.0 18:49:10 10° NNE 18:52:48 86° ESE 18:56:25 10° SSW
CZ-4B R/B 2.9 18:50:16 10° N 18:53:24 37° WNW 18:56:28 10° SW
CZ-2D R/B 3.1 18:55:24 10° SSE 18:59:15 77° ENE 19:03:06 10° N
Cosmos 1844 Rocket 2.9 18:56:38 10° S 19:02:06 52° ESE 19:07:13 12° NNE
TELKOM 3 4.5 19:00:01 10° WSW 19:02:09 30° NW 19:03:22 19° NNE
Cosmos 1777 Rocket 4.5 19:01:12 10° SSW 19:06:22 63° WNW 19:11:36 10° N
IRS-1C Rocket 4.0 19:03:59 10° SSE 19:09:13 77° ENE 19:14:29 10° N
TIMED 4.4 19:05:04 10° NNW 19:09:26 84° ENE 19:13:48 10° SSE
PSLV R/B 4.1 19:05:26 10° N 19:09:39 80° WNW 19:13:51 10° SSW
Cosmos 1092 Rocket 4.4 19:05:05 10° SSE 19:10:42 37° E 19:16:18 10° NNE
YAOGAN 1 2.6 19:12:18 10° SSE 19:16:31 56° ENE 19:20:45 10° N
COSMOS 2455 3.3 19:11:05 10° SW 19:17:01 62° WNW 19:23:00 10° NNE
Cosmos 1892 Rocket 4.4 19:13:21 10° SSW 19:17:36 50° W 19:21:49 10° N
Cosmos 1603 3.9 19:13:40 10° NNW 19:19:22 73° WSW 19:25:04 10° SSE
CZ-2C R/B 3.4 19:20:44 10° S 19:25:44 68° W 19:31:04 10° NNW
CSL-04 Rocket 3.9 19:21:25 10° SE 19:26:24 42° ENE 19:31:29 10° N
CZ-4 R/B 1.4 19:23:28 10° S 19:27:38 84° WSW 19:31:46 10° NNW
Nadezhda 4 Rocket 4.1 19:24:53 10° S 19:31:10 81° W 19:37:26 10° N
ATLAS 3B R/B 3.3 19:25:18 10° NW 19:32:18 64° WSW 19:39:32 10° SSE
Cosmos 1703 3.8 19:30:10 10° S 19:33:03 41° SE 19:33:03 41° SE
SWIFT 4.3 19:31:39 10° SW 19:34:37 18° S 19:35:48 16° SSE
Abrixas rocket 4.4 19:40:12 10° NW 19:40:47 15° NW 19:40:47 15° NW
BREEZE-M DEB (TANK) 2.9 19:39:58 10° WNW 19:43:03 67° SW 19:47:21 18° SE
SJ 16-02 1.7 19:39:10 10° SSW 19:43:32 62° WNW 19:45:49 27° N
H-2A R/B 2.0 19:41:41 10° S 19:46:35 75° WSW 19:51:34 10° NNW
Cosmos 2058 Rocket 3.9 19:45:59 10° NNW 19:50:21 53° W 19:54:44 10° S
Meteor 2-10 Rocket 4.0 19:45:01 10° NNW 19:50:26 63° W 19:55:36 10° S
Cosmos 990 Rocket 3.8 19:45:25 10° S 19:50:35 66° ESE 19:50:47 65° E
IUS-9 SRM-1 3.9 19:51:28 10° WSW 19:52:38 21° SSW 19:52:38 21° SSW
ISS -1.3 19:59:24 10° W 20:01:22 20° NW 20:01:22 20° NW
Helios 1A Rocket 3.9 19:58:08 10° S 20:02:05 46° W 20:06:05 10° NNW
Cosmos 2026 Rocket 3.8 20:02:54 10° S 20:08:57 89° W 20:10:59 45° N
Cosmos 1898 Rocket 3.7 20:04:12 10° SSW 20:08:38 64° S 20:08:38 64° S
ARGOS 3.4 20:04:46 10° S 20:10:04 66° WSW 20:15:24 10° NNW
Cosmos 2098 Rocket 4.0 20:03:48 10° S 20:10:07 74° E 20:11:22 60° NE
Centaur D-1AR AC-48 3.3 20:01:27 10° WSW 20:10:13 33° S 20:10:56 32° S
Mugunghwa Rocket 4.3 20:05:14 10° WSW 20:12:31 61° S 20:13:23 57° SSE
DELTA 2 R/B (1) 3.6 20:09:31 10° WNW 20:14:38 73° W 20:14:38 73° W
Hubble Space Telescope 2.6 20:12:19 10° WSW 20:14:32 28° SW 20:14:32 28° SW
USA 267 4.4 20:17:12 25° N 20:19:59 35° NW 20:25:44 10° W
CZ-2C R/B 3.8 20:24:38 24° NNW 20:27:33 42° WNW 20:32:46 10° SW
